Regional Weather Roundup
Issued by NWS Burlington, VT

Home | Current Version | Previous Version | Text Only | Print | Product List | Glossary On
Versions: 1 2 3 4 5 6 7 8 9 10 11 12 13 14 15 16 17 18 19 20 21 22 23 24 25 26 27 28 29 30 31 32 33 34 35 36 37 38 39 40 41 42 43 44 45 46 47 48 49 50
000
ASUS41 KBTV 221930
RWRBTV
VERMONT REGIONAL WEATHER ROUNDUP
NATIONAL WEATHER SERVICE BURLINGTON VT
300 PM EDT SAT JUL 22 2017

NOTE: "FAIR" INDICATES FEW OR NO CLOUDS BELOW 12,000 FEET WITH NO
SIGNIFICANT WEATHER AND/OR OBSTRUCTIONS TO VISIBILITY.

* THESE REPORTS ARE NOT UNDER NWS QUALITY CONTROL AND/OR DO NOT
  REPORT WEATHER SUCH AS PRECIPITATION AND FOG.

VTZ001>019-222000-
_____VERMONT_____


CITY           SKY/WX    TMP DP  RH WIND       PRES   REMARKS
BURLINGTON     MOSUNNY   81  60  48 W8        29.83F
MONTPELIER     MOSUNNY   78  62  57 W6        29.88F
MORRISVILLE    MOSUNNY   77  56  48 N13       29.84F
ST. JOHNSBURY*   N/A     81  58  45 MISG      29.80F
LYNDONVILLE*   CLOUDY    76  56  49 W8        29.86F
MIDDLEBURY*    FAIR      81  64  56 SW3       29.83S
RUTLAND*       MOSUNNY   79  62  56 S7        29.85F
SPRINGFIELD    CLOUDY    81  60  48 VRB7      29.83F
HIGHGATE*      FAIR      76  57  52 N7        29.84F
NEWPORT*       FAIR      75  55  50 NW8       29.85F
BENNINGTON     MOSUNNY   75  62  64 SW3       29.88S
UNION VILLAGE*   N/A     79 N/A N/A MISG        N/A

_____LAKE CHAMPLAIN_____


CITY           SKY/WX    TMP DP  RH WIND       PRES   REMARKS
BURTON ISLAND*   N/A     77  59  53 N1          N/A
DIAMOND ISL*     N/A     72  59  64 N13         N/A

$$

NYZ007-026>031-035-052-083-087-222000-
_____NORTHERN NEW YORK_____


CITY           SKY/WX    TMP DP  RH WIND       PRES   REMARKS
PLATTSBURGH    MOSUNNY   75  58  55 NE8       29.84F
SARANAC LAKE   PTSUNNY   80  59  48 VRB5      29.86S
MASSENA        MOSUNNY   79  58  48 NE8       29.85F
OGDENSBURG*    FAIR      81  61  50 N5        29.84S
WATERTOWN      CLOUDY    73  66  78 SW7       29.86S
FT DRUM        MOSUNNY   77  65  65 SW9       29.86S
ALBANY         CLOUDY    79  63  57 VRB5      29.85F
GLENS FALLS    MOSUNNY   77  66  68 S8        29.83F

$$
NHZ002-005-011-222000-
_____NEW HAMPSHIRE_____


CITY           SKY/WX    TMP DP  RH WIND       PRES   REMARKS
LEBANON        PTSUNNY   84  59  42 W9        29.81F
KEENE          CLOUDY    79  62  56 S6        29.85F
MT WASHINGTON  PTSUNNY   52  46  82 W41         N/A
PLYMOUTH       FAIR      81  61  50 CALM      29.81F
WHITEFIELD     SUNNY     80  56  43 NW9       29.84F

$$

_____REGIONAL QUEBEC LOCATIONS_____


CITY           SKY/WX    TMP DP  RH WIND       PRES   REMARKS
MONTREAL       PTSUNNY   75  55  50 SW6       29.84F
QUEBEC CITY    MOSUNNY   70  41  35 NW16G22   29.83F
SHERBROOKE     SUNNY     72  54  53 W9G17     29.85F

_____REGIONAL ONTARIO LOCATIONS_____


CITY           SKY/WX    TMP DP  RH WIND       PRES   REMARKS
OTTAWA         PTSUNNY   77  55  47 VRB3      29.86F

______KEY______
VSB  - VISIBILITY IN MILES
WCI  - WIND CHILL INDEX
HX   - HEAT INDEX
$$
NNNN




USA.gov is the U.S. government's official web portal to all federal, state and local government web resources and services.